N2423U KILM-KMYR

Flight info

Callsign N2423U
Flight time 0h 54m
Altitude 4000
Route BEVET/N0112F030
Aircraft C172/L-SFG/C

Departure

Time 2026-05-06 23:53
Airport Wilmington International Airport (KILM)

Arrival

Time 2026-05-07 00:47
Airport Myrtle Beach International Airport (KMYR)
Time Latitude Longitude Altitude Speed Heading
2026-05-06 23:34 34.27168 -77.90909 28 ft 0 kts 242°
2026-05-06 23:38 34.27161 -77.90916 28 ft 0 kts 194°
2026-05-06 23:38 34.27160 -77.90916 28 ft 0 kts 193°
2026-05-06 23:48 34.27150 -77.90917 28 ft 3 kts 178°
2026-05-06 23:49 34.27126 -77.90896 28 ft 5 kts 107°
2026-05-06 23:49 34.27126 -77.90832 28 ft 9 kts 90°
2026-05-06 23:49 34.27127 -77.90746 28 ft 6 kts 72°
2026-05-06 23:49 34.27155 -77.90720 28 ft 6 kts 350°
2026-05-06 23:50 34.27203 -77.90747 28 ft 9 kts 336°
2026-05-06 23:50 34.27301 -77.90808 28 ft 8 kts 331°
2026-05-06 23:50 34.27349 -77.90843 28 ft 6 kts 335°
2026-05-06 23:51 34.27385 -77.90822 28 ft 8 kts 71°
2026-05-06 23:51 34.27405 -77.90758 28 ft 8 kts 69°
2026-05-06 23:51 34.27422 -77.90702 28 ft 0 kts 70°
2026-05-06 23:51 34.27423 -77.90699 28 ft 0 kts 65°
2026-05-06 23:52 34.27429 -77.90681 28 ft 5 kts 69°
2026-05-06 23:52 34.27438 -77.90620 28 ft 8 kts 111°
2026-05-06 23:52 34.27303 -77.90540 29 ft 46 kts 163°
2026-05-06 23:52 34.26964 -77.90362 159 ft 57 kts 168°
2026-05-06 23:53 34.26577 -77.90184 331 ft 60 kts 167°
2026-05-06 23:53 34.26192 -77.89996 477 ft 61 kts 174°
2026-05-06 23:53 34.25765 -77.89884 592 ft 67 kts 178°
2026-05-06 23:53 34.25307 -77.89780 752 ft 65 kts 179°
2026-05-06 23:54 34.24851 -77.89690 900 ft 67 kts 181°
2026-05-06 23:54 34.24413 -77.89600 1102 ft 62 kts 180°
2026-05-06 23:54 34.23999 -77.89510 1264 ft 60 kts 186°
2026-05-06 23:54 34.23573 -77.89532 1408 ft 62 kts 194°
2026-05-06 23:55 34.23136 -77.89598 1588 ft 61 kts 197°
2026-05-06 23:55 34.22745 -77.89702 1762 ft 57 kts 207°
2026-05-06 23:55 34.22355 -77.89880 1894 ft 62 kts 206°
2026-05-06 23:55 34.21986 -77.90155 2042 ft 63 kts 219°
2026-05-06 23:56 34.21651 -77.90518 2183 ft 64 kts 223°
2026-05-06 23:56 34.21351 -77.90902 2352 ft 62 kts 226°
2026-05-06 23:56 34.21070 -77.91294 2518 ft 61 kts 226°
2026-05-06 23:56 34.20780 -77.91677 2687 ft 62 kts 225°
2026-05-06 23:57 34.20487 -77.92055 2853 ft 61 kts 225°
2026-05-06 23:57 34.20196 -77.92429 3017 ft 61 kts 225°
2026-05-06 23:57 34.19899 -77.92796 3185 ft 61 kts 225°
2026-05-06 23:57 34.19600 -77.93159 3351 ft 60 kts 225°
2026-05-06 23:58 34.19299 -77.93511 3516 ft 60 kts 225°
2026-05-06 23:58 34.18996 -77.93854 3687 ft 59 kts 225°
2026-05-06 23:58 34.18747 -77.94242 3849 ft 58 kts 237°
2026-05-06 23:58 34.18535 -77.94673 3974 ft 63 kts 239°
2026-05-06 23:59 34.18279 -77.95200 4000 ft 78 kts 240°
2026-05-06 23:59 34.17973 -77.95837 4002 ft 91 kts 240°
2026-05-06 23:59 34.17647 -77.96516 3997 ft 93 kts 241°
2026-05-06 23:59 34.17330 -77.97166 3995 ft 84 kts 240°
2026-05-07 00:00 34.17050 -77.97760 3993 ft 78 kts 242°
2026-05-07 00:00 34.16783 -77.98332 3993 ft 74 kts 242°
2026-05-07 00:00 34.16519 -77.98892 3993 ft 73 kts 240°
2026-05-07 00:00 34.16266 -77.99435 3993 ft 70 kts 240°
2026-05-07 00:01 34.16026 -77.99956 3993 ft 69 kts 240°
2026-05-07 00:01 34.15793 -78.00467 3994 ft 69 kts 241°
2026-05-07 00:01 34.15562 -78.00977 3993 ft 69 kts 241°
2026-05-07 00:01 34.15331 -78.01487 3988 ft 68 kts 241°
2026-05-07 00:02 34.15100 -78.01990 3992 ft 68 kts 241°
2026-05-07 00:02 34.14865 -78.02493 3986 ft 68 kts 241°
2026-05-07 00:02 34.14629 -78.02993 3989 ft 68 kts 240°
2026-05-07 00:02 34.14394 -78.03500 3991 ft 68 kts 241°
2026-05-07 00:03 34.14162 -78.04003 3990 ft 68 kts 241°
2026-05-07 00:03 34.13932 -78.04507 3991 ft 68 kts 241°
2026-05-07 00:03 34.13706 -78.05004 3989 ft 67 kts 241°
2026-05-07 00:03 34.13481 -78.05500 3990 ft 67 kts 241°
2026-05-07 00:04 34.13255 -78.05990 3990 ft 66 kts 241°
2026-05-07 00:04 34.13031 -78.06481 3987 ft 66 kts 241°
2026-05-07 00:04 34.12806 -78.06971 3988 ft 66 kts 240°
2026-05-07 00:04 34.12580 -78.07461 3989 ft 67 kts 240°
2026-05-07 00:05 34.12356 -78.07953 3989 ft 66 kts 241°
2026-05-07 00:05 34.12134 -78.08447 3989 ft 66 kts 241°
2026-05-07 00:05 34.11909 -78.08938 3991 ft 66 kts 241°
2026-05-07 00:05 34.11686 -78.09429 3996 ft 67 kts 242°
2026-05-07 00:06 34.11459 -78.09927 3999 ft 67 kts 241°
2026-05-07 00:06 34.11234 -78.10427 3995 ft 68 kts 241°
2026-05-07 00:06 34.11010 -78.10925 3998 ft 67 kts 241°
2026-05-07 00:06 34.10787 -78.11428 3995 ft 68 kts 241°
2026-05-07 00:07 34.10565 -78.11931 3995 ft 67 kts 241°
2026-05-07 00:07 34.10344 -78.12432 3990 ft 67 kts 241°
2026-05-07 00:07 34.10120 -78.12931 3990 ft 67 kts 241°
2026-05-07 00:07 34.09896 -78.13428 3995 ft 67 kts 242°
2026-05-07 00:08 34.09669 -78.13927 3992 ft 67 kts 241°
2026-05-07 00:08 34.09442 -78.14427 3991 ft 68 kts 241°
2026-05-07 00:08 34.09213 -78.14931 3989 ft 67 kts 242°
2026-05-07 00:08 34.08981 -78.15436 3994 ft 67 kts 241°
2026-05-07 00:09 34.08755 -78.15932 3995 ft 67 kts 241°
2026-05-07 00:09 34.08526 -78.16433 3995 ft 68 kts 241°
2026-05-07 00:09 34.08292 -78.16938 3997 ft 69 kts 241°
2026-05-07 00:09 34.08059 -78.17444 3997 ft 69 kts 241°
2026-05-07 00:10 34.07826 -78.17953 3999 ft 69 kts 242°
2026-05-07 00:10 34.07591 -78.18462 3999 ft 70 kts 241°
2026-05-07 00:10 34.07355 -78.18977 3996 ft 70 kts 242°
2026-05-07 00:10 34.07121 -78.19490 3994 ft 69 kts 241°
2026-05-07 00:11 34.06887 -78.20011 3994 ft 69 kts 241°
2026-05-07 00:11 34.06653 -78.20540 3995 ft 69 kts 241°
2026-05-07 00:11 34.06428 -78.21052 3995 ft 68 kts 241°
2026-05-07 00:11 34.06202 -78.21559 3995 ft 68 kts 241°
2026-05-07 00:12 34.05972 -78.22066 3993 ft 68 kts 242°
2026-05-07 00:12 34.05736 -78.22567 3991 ft 68 kts 241°
2026-05-07 00:12 34.05499 -78.23066 3990 ft 68 kts 242°
2026-05-07 00:12 34.05262 -78.23566 3990 ft 68 kts 241°
2026-05-07 00:13 34.05021 -78.24077 3988 ft 69 kts 241°
2026-05-07 00:13 34.04775 -78.24606 3988 ft 70 kts 242°
2026-05-07 00:13 34.04535 -78.25126 3987 ft 70 kts 241°
2026-05-07 00:13 34.04296 -78.25643 3979 ft 70 kts 240°
2026-05-07 00:14 34.04047 -78.26185 3978 ft 70 kts 241°
2026-05-07 00:14 34.03805 -78.26719 3974 ft 70 kts 242°
2026-05-07 00:14 34.03571 -78.27234 3974 ft 70 kts 241°
2026-05-07 00:14 34.03340 -78.27750 3971 ft 70 kts 241°
2026-05-07 00:15 34.03110 -78.28266 3972 ft 69 kts 242°
2026-05-07 00:15 34.02878 -78.28778 3972 ft 69 kts 241°
2026-05-07 00:15 34.02648 -78.29285 3971 ft 68 kts 241°
2026-05-07 00:15 34.02419 -78.29791 3971 ft 68 kts 241°
2026-05-07 00:16 34.02190 -78.30294 3971 ft 68 kts 242°
2026-05-07 00:16 34.01955 -78.30794 3969 ft 69 kts 241°
2026-05-07 00:16 34.01717 -78.31294 3970 ft 69 kts 241°
2026-05-07 00:16 34.01478 -78.31797 3970 ft 69 kts 241°
2026-05-07 00:17 34.01238 -78.32307 3969 ft 70 kts 241°
2026-05-07 00:17 34.00998 -78.32816 3966 ft 70 kts 241°
2026-05-07 00:17 34.00758 -78.33331 3967 ft 70 kts 241°
2026-05-07 00:17 34.00580 -78.33874 3966 ft 70 kts 257°
2026-05-07 00:18 34.00532 -78.34465 3967 ft 71 kts 262°
2026-05-07 00:18 34.00508 -78.35060 3967 ft 71 kts 262°
2026-05-07 00:18 34.00487 -78.35654 3968 ft 70 kts 262°
2026-05-07 00:18 34.00467 -78.36246 3969 ft 70 kts 263°
2026-05-07 00:19 34.00447 -78.36840 3969 ft 72 kts 261°
2026-05-07 00:19 34.00423 -78.37511 3975 ft 83 kts 262°
2026-05-07 00:19 34.00394 -78.38242 3973 ft 90 kts 263°
2026-05-07 00:19 34.00360 -78.39017 3972 ft 93 kts 263°
2026-05-07 00:20 34.00322 -78.39811 3970 ft 95 kts 263°
2026-05-07 00:20 34.00282 -78.40614 3969 ft 96 kts 263°
2026-05-07 00:20 34.00245 -78.41428 3971 ft 96 kts 265°
2026-05-07 00:20 34.00247 -78.42255 3974 ft 96 kts 266°
2026-05-07 00:21 34.00253 -78.43076 3975 ft 96 kts 266°
2026-05-07 00:21 34.00250 -78.43894 3974 ft 97 kts 264°
2026-05-07 00:21 34.00186 -78.44725 3975 ft 97 kts 259°
2026-05-07 00:21 34.00056 -78.45550 3976 ft 96 kts 256°
2026-05-07 00:22 33.99916 -78.46365 3978 ft 97 kts 257°
2026-05-07 00:22 33.99790 -78.47180 3980 ft 97 kts 258°
2026-05-07 00:22 33.99678 -78.47995 3982 ft 97 kts 258°
2026-05-07 00:22 33.99578 -78.48820 3984 ft 98 kts 259°
2026-05-07 00:23 33.99493 -78.49638 3984 ft 98 kts 260°
2026-05-07 00:23 33.99421 -78.50466 3984 ft 97 kts 261°
2026-05-07 00:23 33.99363 -78.51305 3982 ft 97 kts 263°
2026-05-07 00:23 33.99322 -78.52134 3981 ft 96 kts 264°
2026-05-07 00:24 33.99294 -78.52964 3980 ft 97 kts 264°
2026-05-07 00:24 33.99217 -78.53785 3979 ft 96 kts 252°
2026-05-07 00:24 33.98999 -78.54562 3977 ft 95 kts 249°
2026-05-07 00:24 33.98763 -78.55334 3977 ft 95 kts 249°
2026-05-07 00:25 33.98524 -78.56092 3978 ft 95 kts 249°
2026-05-07 00:25 33.98281 -78.56850 3977 ft 95 kts 249°
2026-05-07 00:25 33.98038 -78.57615 3975 ft 95 kts 249°
2026-05-07 00:25 33.97797 -78.58372 3975 ft 96 kts 249°
2026-05-07 00:26 33.97553 -78.59138 3974 ft 96 kts 249°
2026-05-07 00:26 33.97314 -78.59895 3974 ft 97 kts 249°
2026-05-07 00:26 33.97074 -78.60662 3973 ft 96 kts 249°
2026-05-07 00:26 33.96834 -78.61432 3978 ft 96 kts 249°
2026-05-07 00:27 33.96595 -78.62210 3977 ft 96 kts 249°
2026-05-07 00:27 33.96358 -78.62982 3977 ft 95 kts 249°
2026-05-07 00:27 33.96124 -78.63737 3975 ft 91 kts 249°
2026-05-07 00:27 33.95896 -78.64468 3977 ft 90 kts 249°
2026-05-07 00:28 33.95665 -78.65191 3980 ft 89 kts 249°
2026-05-07 00:28 33.95440 -78.65891 3982 ft 89 kts 248°
2026-05-07 00:28 33.95217 -78.66593 3982 ft 89 kts 248°
2026-05-07 00:28 33.94995 -78.67296 3981 ft 90 kts 249°
2026-05-07 00:29 33.94793 -78.67927 3982 ft 90 kts 249°
2026-05-07 00:29 33.94567 -78.68631 3984 ft 89 kts 248°
2026-05-07 00:30 33.93812 -78.70680 3981 ft 90 kts 243°
2026-05-07 00:30 33.93510 -78.71351 3979 ft 91 kts 242°
2026-05-07 00:30 33.93211 -78.72022 3981 ft 90 kts 243°
2026-05-07 00:30 33.92914 -78.72690 3981 ft 89 kts 242°
2026-05-07 00:31 33.92624 -78.73349 3981 ft 88 kts 242°
2026-05-07 00:31 33.92337 -78.74007 3982 ft 89 kts 243°
2026-05-07 00:31 33.92051 -78.74663 3982 ft 88 kts 243°
2026-05-07 00:31 33.91759 -78.75332 3983 ft 88 kts 243°
2026-05-07 00:32 33.91463 -78.75998 3983 ft 88 kts 243°
2026-05-07 00:32 33.91171 -78.76644 3980 ft 86 kts 243°
2026-05-07 00:32 33.90891 -78.77267 3982 ft 83 kts 243°
2026-05-07 00:32 33.90617 -78.77872 3982 ft 81 kts 243°
2026-05-07 00:33 33.90348 -78.78468 3985 ft 80 kts 243°
2026-05-07 00:33 33.90084 -78.79057 3986 ft 79 kts 243°
2026-05-07 00:33 33.89823 -78.79645 3985 ft 79 kts 243°
2026-05-07 00:33 33.89556 -78.80239 3985 ft 79 kts 243°
2026-05-07 00:34 33.89288 -78.80837 3986 ft 79 kts 242°
2026-05-07 00:34 33.89030 -78.81423 3984 ft 79 kts 242°
2026-05-07 00:34 33.88771 -78.82007 3985 ft 79 kts 242°
2026-05-07 00:34 33.88510 -78.82601 3987 ft 78 kts 243°
2026-05-07 00:35 33.88251 -78.83189 3985 ft 78 kts 243°
2026-05-07 00:35 33.87994 -78.83773 3983 ft 79 kts 243°
2026-05-07 00:35 33.87735 -78.84358 3980 ft 79 kts 243°
2026-05-07 00:35 33.87475 -78.84942 3977 ft 79 kts 243°
2026-05-07 00:36 33.87211 -78.85526 3973 ft 79 kts 243°
2026-05-07 00:36 33.86946 -78.86104 3974 ft 78 kts 242°
2026-05-07 00:36 33.86682 -78.86678 3975 ft 78 kts 242°
2026-05-07 00:36 33.86421 -78.87252 3944 ft 82 kts 243°
2026-05-07 00:37 33.86134 -78.87896 3809 ft 92 kts 243°
2026-05-07 00:37 33.85829 -78.88587 3665 ft 93 kts 243°
2026-05-07 00:37 33.85529 -78.89279 3522 ft 93 kts 243°
2026-05-07 00:37 33.85233 -78.89972 3380 ft 93 kts 242°
2026-05-07 00:38 33.84948 -78.90670 3235 ft 93 kts 244°
2026-05-07 00:38 33.84676 -78.91377 3092 ft 93 kts 244°
2026-05-07 00:38 33.84410 -78.92085 2950 ft 91 kts 244°
2026-05-07 00:38 33.84161 -78.92766 2801 ft 87 kts 243°
2026-05-07 00:39 33.83834 -78.93356 2655 ft 83 kts 232°
2026-05-07 00:39 33.83472 -78.93893 2519 ft 80 kts 230°
2026-05-07 00:39 33.83107 -78.94338 2486 ft 69 kts 223°
2026-05-07 00:39 33.82735 -78.94642 2484 ft 61 kts 211°
2026-05-07 00:40 33.82353 -78.94874 2422 ft 62 kts 210°
2026-05-07 00:40 33.81964 -78.95088 2376 ft 60 kts 204°
2026-05-07 00:40 33.81574 -78.95208 2357 ft 56 kts 200°
2026-05-07 00:40 33.81195 -78.95313 2325 ft 55 kts 200°
2026-05-07 00:41 33.80823 -78.95400 2318 ft 55 kts 196°
2026-05-07 00:41 33.80417 -78.95461 2323 ft 60 kts 195°
2026-05-07 00:41 33.79978 -78.95511 2324 ft 65 kts 190°
2026-05-07 00:41 33.79503 -78.95522 2291 ft 70 kts 189°
2026-05-07 00:42 33.78988 -78.95507 2224 ft 76 kts 185°
2026-05-07 00:42 33.78445 -78.95465 2170 ft 78 kts 182°
2026-05-07 00:42 33.77892 -78.95348 2068 ft 81 kts 174°
2026-05-07 00:42 33.77361 -78.95124 1982 ft 79 kts 171°
2026-05-07 00:43 33.76847 -78.94931 1891 ft 77 kts 177°
2026-05-07 00:43 33.76315 -78.94807 1739 ft 77 kts 184°
2026-05-07 00:43 33.75791 -78.94742 1650 ft 75 kts 181°
2026-05-07 00:43 33.75288 -78.94636 1573 ft 72 kts 178°
2026-05-07 00:44 33.74800 -78.94492 1489 ft 71 kts 177°
2026-05-07 00:44 33.74320 -78.94362 1406 ft 70 kts 179°
2026-05-07 00:44 33.73849 -78.94261 1332 ft 67 kts 180°
2026-05-07 00:44 33.73380 -78.94188 1231 ft 68 kts 180°
2026-05-07 00:45 33.72926 -78.94070 1159 ft 64 kts 175°
2026-05-07 00:45 33.72505 -78.93940 1092 ft 60 kts 179°
2026-05-07 00:45 33.72099 -78.93853 1018 ft 55 kts 179°
2026-05-07 00:45 33.71731 -78.93773 907 ft 53 kts 180°
2026-05-07 00:46 33.71362 -78.93685 782 ft 55 kts 177°
2026-05-07 00:46 33.70994 -78.93582 665 ft 54 kts 180°
2026-05-07 00:46 33.70626 -78.93496 557 ft 53 kts 176°
2026-05-07 00:46 33.70256 -78.93391 417 ft 55 kts 178°
2026-05-07 00:47 33.69882 -78.93303 303 ft 54 kts 177°
2026-05-07 00:47 33.69512 -78.93209 183 ft 54 kts 176°
2026-05-07 00:47 33.69144 -78.93120 78 ft 52 kts 174°
2026-05-07 00:47 33.68810 -78.93038 31 ft 44 kts 177°
2026-05-07 00:48 33.68541 -78.92977 20 ft 34 kts 166°
2026-05-07 00:48 33.68357 -78.92930 20 ft 24 kts 171°
2026-05-07 00:48 33.68213 -78.92893 20 ft 16 kts 168°
2026-05-07 00:48 33.68122 -78.92877 20 ft 4 kts 192°
2026-05-07 00:49 33.68101 -78.92895 20 ft 6 kts 236°
2026-05-07 00:49 33.68074 -78.92973 20 ft 12 kts 248°
2026-05-07 00:49 33.68043 -78.93063 20 ft 13 kts 246°
2026-05-07 00:49 33.68012 -78.93157 20 ft 9 kts 247°
2026-05-07 00:50 33.67971 -78.93198 20 ft 7 kts 176°
2026-05-07 00:50 33.67908 -78.93182 20 ft 11 kts 167°
2026-05-07 00:50 33.67823 -78.93161 20 ft 13 kts 169°
2026-05-07 00:50 33.67745 -78.93141 20 ft 11 kts 167°
2026-05-07 00:51 33.67664 -78.93121 21 ft 11 kts 170°
2026-05-07 00:51 33.67606 -78.93111 21 ft 3 kts 192°
2026-05-07 00:51 33.67588 -78.93122 21 ft 5 kts 218°
2026-05-07 00:51 33.67566 -78.93200 21 ft 12 kts 249°
2026-05-07 00:52 33.67535 -78.93286 21 ft 10 kts 239°
2026-05-07 00:52 33.67507 -78.93365 21 ft 8 kts 244°
2026-05-07 00:52 33.67480 -78.93397 21 ft 3 kts 230°
2026-05-07 00:52 33.67470 -78.93422 21 ft 3 kts 248°
2026-05-07 00:53 33.67468 -78.93427 21 ft 0 kts 228°